Вернуться в каталог

STARLINK-33697

АктивенСвязьVLEO
NORAD 63467·PAYLOAD·🇺🇸 United States

Запущен Apr 6, 2025 с Cape Canaveral Space Force Station

Loading…

Ближайшие Пролёты (ближайшие 24 часа)

TLE

СвежийSource: CelesTrak SupGP

Эпоха: Sep 15, 2026, 03:42 UTC

1 63467C 25070H   26258.15465278 -.00019042  00000+0 -68981-3 0  2581
2 63467  43.0025 269.8651 0001497 267.9630  37.5505 15.27583270    19

Отслеживайте STARLINK-33697 в реальном времени с AllMySat

Download on the App Store